Location: Crescent
(42.8242°N, 73.7329°W)
Time: 14:44:47
(UTC+00:00)

Explorer 11/Cluster Stage 4 - Pass Details

Date: 24 February 2026
Orbit: 463 x 1176 km, 28.8° (Epoch: 8 March)

Event Time Altitude Azimuth Distance (km) Brightness Sun altitude
Rises 17:29:48 0° 244° (WSW) 3,223 10.1 37.7°
Reaches altitude 10° 17:33:37 10° 220° (SW) 2,120 9.7 37.6°
Maximum altitude 17:36:02 14° 190° (S) 1,779 9.9 37.5°
Drops below altitude 10° 17:38:16 10° 160° (SSE) 1,916 9.5 37.5°
Sets 17:41:24 0° 133° (SE) 2,688 9.7 37.4°
